Bloomington, IL

7:18 PM CDT on October 23, 2017 (GMT -0500)
Central Ill Regional

Weather History for KBMI - November, 2013

Change the Weather History Date:

Saturday, November 16, 2013

  Actual Average Record
Temperature  
Mean Temperature 51 °F -  
Max Temperature 61 °F 41 °F 71 °F (2001)
Min Temperature 42 °F 31 °F 17 °F (2005)
Degree Days  
Heating Degree Days 14    
Growing Degree Days 1 (Base 50)    
Moisture  
Dew Point 52 °F    
Average Humidity 97    
Maximum Humidity 100    
Minimum Humidity 77    
Precipitation  
Precipitation 0.11 in - - ()
Sea Level Pressure  
Sea Level Pressure 29.79 in    
Wind  
Wind Speed 21 mph (South)    
Max Wind Speed 31 mph    
Max Gust Speed 43 mph    
Visibility 7 miles    
Events Rain    
Averages and records for this station are not official NWS values.
T = Trace of Precipitation, MM = Missing Value Source: NWS Daily Summary

Daily Weather History Graph

Daily Weather History Graph

Search for Another Location

Airport or City:

Trip Planner

Search our weather history database for the weather conditions in past years. The results will help you decide how hot, cold, wet, or windy it might be!

Date:

Astronomy

Nov. 16, 2013 Rise Set
Actual Time 6:43 AM CST 4:37 PM CST
Civil Twilight 6:14 AM CST 5:06 PM CST
Nautical Twilight 5:41 AM CST 5:39 PM CST
Astronomical Twilight 5:08 AM CST 6:11 PM CST
Moon 4:12 PM CST (11/16) 5:39 AM CST (11/16)
Length of Visible Light 10h 52m
Length of Day
9h 53m
Waxing Gibbous, 99% of the Moon is Illuminated
Nov 16
Waxing Gibbous
Nov 17
Full
Nov 25
Last Quarter
Dec 2
New
Dec 9
First Quarter

Hourly Weather History & Observations

Time (CST) Temp. Windchill Dew Point Humidity Pressure Visibility Wind Dir Wind Speed Gust Speed Precip Events Conditions
12:03 AM 42.8 °F 34.3 °F 41.0 °F 93% 29.94 in 10.0 mi South 19.6 mph - N/A   Mostly Cloudy
12:26 AM 42.8 °F 34.5 °F 42.8 °F 100% 29.94 in 10.0 mi South 18.4 mph - N/A   Overcast
12:56 AM 43.9 °F 36.5 °F 43.0 °F 97% 29.95 in 10.0 mi South 16.1 mph - N/A   Overcast
1:43 AM 44.6 °F 37.4 °F 44.6 °F 100% 29.92 in 9.0 mi South 16.1 mph - N/A   Overcast
1:56 AM 45.9 °F 38.8 °F 45.0 °F 97% 29.94 in 9.0 mi South 17.3 mph - N/A   Overcast
2:19 AM 46.4 °F 39.5 °F 46.4 °F 100% 29.92 in 10.0 mi South 17.3 mph - N/A   Overcast
2:56 AM 46.9 °F - 45.9 °F 96% 29.93 in 10.0 mi South 16.1 mph - N/A   Overcast
3:27 AM 46.4 °F 39.8 °F 46.4 °F 100% 29.91 in 10.0 mi South 16.1 mph - N/A   Overcast
3:56 AM 47.8 °F - 46.9 °F 97% 29.92 in 10.0 mi South 18.4 mph - N/A   Overcast
4:41 AM 48.2 °F - 48.2 °F 100% 29.90 in 9.0 mi South 16.1 mph - N/A   Overcast
4:56 AM 46.9 °F - 46.9 °F 100% 29.92 in 8.0 mi South 18.4 mph - N/A   Overcast
5:56 AM 47.8 °F - 47.8 °F 100% 29.90 in 6.0 mi South 19.6 mph - N/A   Overcast
6:56 AM 50.0 °F - 50.0 °F 100% 29.90 in 5.0 mi South 21.9 mph 32.2 mph N/A   Overcast
7:56 AM 50.0 °F - 50.0 °F 100% 29.90 in 4.0 mi South 20.7 mph - N/A   Overcast
8:03 AM 50.0 °F - 50.0 °F 100% 29.88 in 3.0 mi South 21.9 mph - N/A   Overcast
8:56 AM 50.9 °F - 50.9 °F 100% 29.88 in 2.5 mi South 23.0 mph 28.8 mph N/A   Overcast
9:33 AM 51.8 °F - 51.8 °F 100% 29.85 in 1.5 mi South 25.3 mph 35.7 mph N/A   Overcast
9:39 AM 51.8 °F - 51.8 °F 100% 29.85 in 1.2 mi South 24.2 mph 31.1 mph N/A   Overcast
9:56 AM 50.9 °F - 50.9 °F 100% 29.86 in 1.0 mi South 23.0 mph 31.1 mph N/A   Overcast
10:56 AM 54.0 °F - 54.0 °F 100% 29.83 in 5.0 mi South 24.2 mph 31.1 mph N/A   Overcast
11:20 AM 55.4 °F - 53.6 °F 94% 29.80 in 6.0 mi South 26.5 mph 32.2 mph N/A   Overcast
11:56 AM 56.8 °F - 54.0 °F 90% 29.78 in 9.0 mi South 24.2 mph 29.9 mph N/A   Overcast
12:56 PM 59.9 °F - 54.0 °F 81% 29.76 in 10.0 mi SSW 27.6 mph 32.2 mph N/A   Overcast
12:59 PM 60.8 °F - 53.6 °F 77% 29.76 in 10.0 mi SSW 24.2 mph 32.2 mph N/A   Overcast
1:56 PM 59.9 °F - 54.0 °F 81% 29.74 in 10.0 mi South 29.9 mph 36.8 mph N/A   Mostly Cloudy
2:56 PM 59.0 °F - 54.9 °F 86% 29.73 in 10.0 mi South 27.6 mph 33.4 mph 0.00 in Rain Light Rain
3:56 PM 57.9 °F - 55.9 °F 93% 29.69 in 6.0 mi South 23.0 mph 29.9 mph 0.00 in Rain Light Rain
4:56 PM 56.8 °F - 56.8 °F 100% 29.64 in 2.5 mi SSE 28.8 mph 39.1 mph 0.02 in Rain Light Rain
4:58 PM 57.2 °F - 57.2 °F 100% 29.64 in 4.0 mi South 28.8 mph 39.1 mph 0.00 in Rain Light Rain
5:06 PM 57.2 °F - 57.2 °F 100% 29.65 in 2.5 mi South 27.6 mph 35.7 mph 0.02 in Rain Light Rain
5:25 PM 57.2 °F - 57.2 °F 100% 29.63 in 4.0 mi SSE 31.1 mph 39.1 mph 0.04 in Rain Light Rain
5:56 PM 57.9 °F - 57.9 °F 100% 29.63 in 4.0 mi South 26.5 mph 36.8 mph 0.05 in Rain Light Rain
6:21 PM 57.2 °F - 57.2 °F 100% 29.66 in 4.0 mi South 24.2 mph 31.1 mph 0.02 in Rain Light Rain
6:56 PM 59.0 °F - 59.0 °F 100% 29.66 in 5.0 mi South 27.6 mph 35.7 mph 0.03 in Rain Light Rain
7:56 PM 59.9 °F - 59.9 °F 100% 29.67 in 8.0 mi SSW 28.8 mph 42.6 mph 0.00 in Rain Light Rain
8:56 PM 59.0 °F - 59.0 °F 100% 29.66 in 9.0 mi SSW 26.5 mph 36.8 mph 0.01 in Rain Light Rain
9:56 PM 59.0 °F - 59.0 °F 100% 29.65 in 9.0 mi South 25.3 mph 33.4 mph 0.00 in   Mostly Cloudy
10:07 PM 59.0 °F - 59.0 °F 100% 29.65 in 9.0 mi South 24.2 mph 31.1 mph N/A   Scattered Clouds
10:56 PM 59.9 °F - 59.9 °F 100% 29.63 in 10.0 mi South 23.0 mph 28.8 mph N/A   Scattered Clouds
11:56 PM 61.0 °F - 61.0 °F 100% 29.63 in 10.0 mi SSW 18.4 mph 25.3 mph N/A   Mostly Cloudy